Weather History for KSPF - October, 2013

Change the Weather History Date:

Thursday, October 31, 2013

  Actual Average (KEFC) Record (KEFC)
Temperature  
Mean Temperature 44 °F -  
Max Temperature 50 °F 56 °F 77 °F (1990)
Min Temperature 37 °F 28 °F -10 °F (1991)
Degree Days  
Heating Degree Days 22    
Moisture  
Dew Point 28 °F    
Average Humidity 56    
Maximum Humidity 70    
Minimum Humidity 43    
Precipitation  
Precipitation 0.00 in - - ()
Sea Level Pressure  
Sea Level Pressure 29.70 in    
Wind  
Wind Speed 16 mph (WNW)    
Max Wind Speed 26 mph    
Max Gust Speed 36 mph    
Visibility 10 miles    
Events      
Averages and records for this station are not official NWS values.
T = Trace of Precipitation, MM = Missing Value Source: NWS Daily Summary

Daily Weather History Graph

Daily Weather History Graph

Search for Another Location

Airport or City:

Trip Planner

Search our weather history database for the weather conditions in past years. The results will help you decide how hot, cold, wet, or windy it might be!

Date:

Astronomy

Oct. 31, 2013 Rise Set
Actual Time 8:31 AM CDT 6:45 PM CDT
Civil Twilight 8:01 AM CDT 7:15 PM CDT
Nautical Twilight 7:26 AM CDT 7:49 PM CDT
Astronomical Twilight 6:53 AM CDT 8:23 PM CDT
Moon 5:16 AM CDT (10/31) 5:10 PM CDT (10/31)
Length of Visible Light 11h 14m
Length of Day
10h 13m
Waning Crescent, 10% of the Moon is Illuminated
Oct 31
Waning Crescent
Nov 3
New
Nov 9
First Quarter
Nov 17
Full
Nov 25
Last Quarter

Hourly Weather History & Observations

Time (CDT) Temp. Windchill Dew Point Humidity Pressure Visibility Wind Dir Wind Speed Gust Speed Precip Events Conditions
12:15 AM 37.4 °F 30.3 °F 28.4 °F 70% 29.73 in 10.0 mi West 10.4 mph - N/A   Clear
12:35 AM 37.4 °F 30.3 °F 26.6 °F 65% 29.72 in 10.0 mi West 10.4 mph - N/A   Clear
12:55 AM 37.4 °F 30.3 °F 26.6 °F 65% 29.72 in 10.0 mi West 10.4 mph - N/A   Clear
1:15 AM 37.4 °F 30.8 °F 26.6 °F 65% 29.72 in 10.0 mi West 9.2 mph - N/A   Clear
1:35 AM 37.4 °F 29.8 °F 26.6 °F 65% 29.71 in 10.0 mi West 11.5 mph - N/A   Clear
1:55 AM 37.4 °F 29.3 °F 26.6 °F 65% 29.71 in 10.0 mi West 12.7 mph - N/A   Clear
2:15 AM 37.4 °F 29.8 °F 26.6 °F 65% 29.70 in 10.0 mi West 11.5 mph - N/A   Clear
2:35 AM 39.2 °F 31.6 °F 28.4 °F 65% 29.70 in 10.0 mi West 12.7 mph - N/A   Clear
2:55 AM 39.2 °F 30.2 °F 26.6 °F 61% 29.70 in 10.0 mi West 17.3 mph 23.0 mph N/A   Clear
3:15 AM 39.2 °F 29.0 °F 26.6 °F 61% 29.70 in 10.0 mi West 21.9 mph 32.2 mph N/A   Clear
3:35 AM 39.2 °F 30.2 °F 26.6 °F 61% 29.69 in 10.0 mi West 17.3 mph 21.9 mph N/A   Clear
3:55 AM 39.2 °F 30.5 °F 26.6 °F 61% 29.69 in 10.0 mi West 16.1 mph 25.3 mph N/A   Clear
4:15 AM 39.2 °F 29.8 °F 26.6 °F 61% 29.68 in 10.0 mi West 18.4 mph 25.3 mph N/A   Clear
4:35 AM 39.2 °F 29.6 °F 26.6 °F 61% 29.68 in 10.0 mi West 19.6 mph 26.5 mph N/A   Clear
4:55 AM 39.2 °F 29.3 °F 26.6 °F 61% 29.69 in 10.0 mi WNW 20.7 mph 29.9 mph N/A   Clear
5:15 AM 39.2 °F 29.0 °F 26.6 °F 61% 29.70 in 10.0 mi WNW 21.9 mph 33.4 mph N/A   Clear
5:35 AM 39.2 °F 28.7 °F 24.8 °F 56% 29.70 in 10.0 mi WNW 23.0 mph 31.1 mph N/A   Clear
5:55 AM 39.2 °F 29.0 °F 24.8 °F 56% 29.70 in 10.0 mi West 21.9 mph 29.9 mph N/A   Clear
6:15 AM 39.2 °F 29.8 °F 24.8 °F 56% 29.71 in 10.0 mi West 18.4 mph 27.6 mph N/A   Clear
6:35 AM 39.2 °F 29.3 °F 24.8 °F 56% 29.71 in 10.0 mi West 20.7 mph 27.6 mph N/A   Clear
6:55 AM 39.2 °F 29.8 °F 24.8 °F 56% 29.71 in 10.0 mi West 18.4 mph 27.6 mph N/A   Clear
7:15 AM 37.4 °F 28.2 °F 24.8 °F 60% 29.71 in 10.0 mi West 16.1 mph 23.0 mph N/A   Clear
7:35 AM 37.4 °F 27.8 °F 24.8 °F 60% 29.71 in 10.0 mi West 17.3 mph 23.0 mph N/A   Clear
7:55 AM 39.2 °F 29.8 °F 24.8 °F 56% 29.71 in 10.0 mi West 18.4 mph 26.5 mph N/A   Clear
8:15 AM 39.2 °F 31.6 °F 24.8 °F 56% 29.71 in 10.0 mi West 12.7 mph 18.4 mph N/A   Clear
8:35 AM 39.2 °F 29.8 °F 24.8 °F 56% 29.71 in 10.0 mi West 18.4 mph 26.5 mph N/A   Clear
8:55 AM 39.2 °F 29.6 °F 24.8 °F 56% 29.72 in 10.0 mi West 19.6 mph 25.3 mph N/A   Partly Cloudy
9:15 AM 41.0 °F 31.1 °F 24.8 °F 53% 29.71 in 10.0 mi West 23.0 mph 29.9 mph N/A   Clear
9:35 AM 41.0 °F 31.1 °F 24.8 °F 53% 29.71 in 10.0 mi West 23.0 mph 31.1 mph N/A   Partly Cloudy
9:55 AM 42.8 °F 34.3 °F 26.6 °F 53% 29.71 in 10.0 mi West 19.6 mph 28.8 mph N/A   Clear
10:15 AM 42.8 °F 32.9 °F 24.8 °F 49% 29.72 in 10.0 mi West 26.5 mph 35.7 mph N/A   Scattered Clouds
10:35 AM 42.8 °F 34.0 °F 24.8 °F 49% 29.72 in 10.0 mi WNW 20.7 mph 26.5 mph N/A   Scattered Clouds
10:55 AM 44.6 °F 36.9 °F 26.6 °F 49% 29.72 in 10.0 mi WNW 18.4 mph 28.8 mph N/A   Partly Cloudy
11:15 AM 44.6 °F 37.2 °F 26.6 °F 49% 29.73 in 10.0 mi WNW 17.3 mph 26.5 mph N/A   Clear
11:35 AM 42.8 °F 34.8 °F 26.6 °F 53% 29.73 in 10.0 mi West 17.3 mph 29.9 mph N/A   Clear
11:55 AM 42.8 °F 35.1 °F 26.6 °F 53% 29.73 in 10.0 mi West 16.1 mph 26.5 mph N/A   Clear
12:15 PM 44.6 °F 37.2 °F 26.6 °F 49% 29.72 in 10.0 mi West 17.3 mph 21.9 mph N/A   Clear
12:35 PM 44.6 °F 36.1 °F 26.6 °F 49% 29.71 in 10.0 mi West 21.9 mph 26.5 mph N/A   Clear
12:55 PM 44.6 °F 37.2 °F 26.6 °F 49% 29.70 in 10.0 mi WNW 17.3 mph 31.1 mph N/A   Partly Cloudy
1:15 PM 46.4 °F 39.2 °F 28.4 °F 50% 29.69 in 10.0 mi West 18.4 mph 27.6 mph N/A   Clear
1:35 PM 46.4 °F 39.0 °F 28.4 °F 50% 29.68 in 10.0 mi WNW 19.6 mph 27.6 mph N/A   Clear
1:55 PM 48.2 °F - 26.6 °F 43% 29.66 in 10.0 mi WNW 19.6 mph 27.6 mph N/A   Partly Cloudy
2:15 PM 48.2 °F - 26.6 °F 43% 29.66 in 10.0 mi WNW 17.3 mph 27.6 mph N/A   Clear
2:35 PM 50.0 °F - 28.4 °F 43% 29.65 in 10.0 mi WNW 20.7 mph 31.1 mph N/A   Scattered Clouds
2:55 PM 48.2 °F - 28.4 °F 46% 29.65 in 10.0 mi WNW 23.0 mph 29.9 mph N/A   Mostly Cloudy
3:15 PM 48.2 °F - 28.4 °F 46% 29.65 in 10.0 mi West 21.9 mph 28.8 mph N/A   Mostly Cloudy
3:35 PM 48.2 °F - 28.4 °F 46% 29.66 in 10.0 mi WNW 16.1 mph 24.2 mph N/A   Partly Cloudy
3:55 PM 48.2 °F - 28.4 °F 46% 29.66 in 10.0 mi WNW 17.3 mph 31.1 mph N/A   Mostly Cloudy
4:15 PM 48.2 °F - 28.4 °F 46% 29.66 in 10.0 mi WNW 18.4 mph 25.3 mph N/A   Mostly Cloudy
4:35 PM 48.2 °F - 28.4 °F 46% 29.66 in 10.0 mi WNW 17.3 mph 21.9 mph N/A   Mostly Cloudy
4:55 PM 48.2 °F - 28.4 °F 46% 29.67 in 10.0 mi WNW 19.6 mph 26.5 mph N/A   Mostly Cloudy
5:15 PM 48.2 °F - 28.4 °F 46% 29.67 in 10.0 mi WNW 17.3 mph 25.3 mph N/A   Overcast
5:35 PM 48.2 °F - 28.4 °F 46% 29.67 in 10.0 mi WNW 20.7 mph 26.5 mph N/A   Overcast
5:55 PM 46.4 °F 40.4 °F 28.4 °F 50% 29.68 in 10.0 mi WNW 13.8 mph 24.2 mph N/A   Overcast
6:15 PM 46.4 °F 40.7 °F 28.4 °F 50% 29.68 in 10.0 mi WNW 12.7 mph - N/A   Overcast
6:35 PM 44.6 °F 37.4 °F 28.4 °F 53% 29.68 in 10.0 mi WNW 16.1 mph 21.9 mph N/A   Mostly Cloudy
6:55 PM 44.6 °F 39.2 °F 28.4 °F 53% 29.68 in 10.0 mi WNW 10.4 mph - N/A   Partly Cloudy
7:15 PM 46.4 °F 39.5 °F 28.4 °F 50% 29.69 in 10.0 mi West 17.3 mph 23.0 mph N/A   Mostly Cloudy
7:35 PM 46.4 °F 40.1 °F 28.4 °F 50% 29.69 in 10.0 mi WNW 15.0 mph 23.0 mph N/A   Overcast
7:55 PM 46.4 °F 40.1 °F 28.4 °F 50% 29.70 in 10.0 mi WNW 15.0 mph 29.9 mph N/A   Overcast
8:15 PM 46.4 °F 39.2 °F 30.2 °F 53% 29.70 in 10.0 mi WNW 18.4 mph 27.6 mph N/A   Overcast
8:35 PM 46.4 °F 38.5 °F 28.4 °F 50% 29.71 in 10.0 mi WNW 21.9 mph 32.2 mph N/A   Overcast
8:55 PM 44.6 °F 35.9 °F 32.0 °F 61% 29.72 in 10.0 mi WNW 23.0 mph 33.4 mph N/A   Overcast
9:15 PM 44.6 °F 37.4 °F 32.0 °F 61% 29.72 in 10.0 mi West 16.1 mph 24.2 mph N/A   Overcast
9:35 PM 42.8 °F 35.1 °F 32.0 °F 66% 29.73 in 10.0 mi West 16.1 mph 24.2 mph N/A   Overcast
9:55 PM 42.8 °F 34.8 °F 32.0 °F 66% 29.74 in 10.0 mi West 17.3 mph 24.2 mph N/A   Overcast
10:15 PM 42.8 °F 35.1 °F 32.0 °F 66% 29.75 in 10.0 mi WNW 16.1 mph - N/A   Overcast
10:35 PM 42.8 °F 34.5 °F 32.0 °F 66% 29.75 in 10.0 mi WNW 18.4 mph 25.3 mph N/A   Overcast
10:55 PM 41.0 °F 32.5 °F 32.0 °F 70% 29.76 in 10.0 mi WNW 17.3 mph 25.3 mph N/A   Overcast
11:15 PM 41.0 °F 31.9 °F 32.0 °F 70% 29.76 in 10.0 mi WNW 19.6 mph 24.2 mph N/A   Overcast
11:35 PM 41.0 °F 31.6 °F 32.0 °F 70% 29.77 in 10.0 mi WNW 20.7 mph 25.3 mph N/A   Overcast